KUIPER-00218

导读

KUIPER-00218是亚马逊柯伊伯(Project Kuiper)卫星互联网项目的一颗卫星,于2026年2月12日由法国阿丽亚娜空间公司执行发射任务,属于该项目大规模部署阶段的卫星之一。柯伊伯项目计划构建由3236颗低轨卫星组成的星座,旨在为全球提供高速低延迟卫星互联网接入,KUIPER-00218将助力项目推进全球网络覆盖目标,缩小数字鸿沟。

Basic Information
目录编号:
67780
目录名称:
KUIPER-00218
国际标识:
2026-030S
轨道中心:
EARTH
卫星名称:
KUIPER-00218
卫星全名:
KUIPER-00218
卫星状态:
在轨 (已飞行124 天)
发射日期:
2026-02-12 UTC
国别 :
美国 (US)
星等 :
--
Orbit Information
数据来源 国际轨道数据
星历时间: 2026-06-16T14:00:02+0800
8小时前
查看轨道信息
半长轴: 7007.461km
偏心率: 0.0001117
轨道倾角: 51.897°
近地点辐角 104.263°
升交点赤经 129.772°
平近点角 58.121°
近地点: 628.541km
远地点: 630.107km
周期: 97.297分钟
每日圈数: 14.800002
Detailed Information
使用方式:
暂无
2D Orbit Map
3D Orbit Map
Orbit Altitude Analysis Chart
Orbit Inclination Analysis Chart
Orbit Comprehensive Analysis Chart
View Comprehensive Chart